TIME,�t�@���q�[�^�m���b�g���n,�t���O,�t�@���q�[�^�mMJ�n,�t���O
2003/12/1 0:00,0.000022755,0,2.78,0
2003/12/1 0:15,0.000022755,0,2.78,0
2003/12/1 0:30,0.000022755,0,2.78,0
2003/12/1 0:45,0.000022755,0,2.78,0
2003/12/1 1:00,2.28063E-05,0,2.79,0
2003/12/1 1:15,0.000022755,0,2.78,0
2003/12/1 1:30,0.000022755,0,2.78,0
2003/12/1 1:45,2.28063E-05,0,2.79,0
2003/12/1 2:00,2.28063E-05,0,2.79,0
2003/12/1 2:15,0.000022755,0,2.78,0
2003/12/1 2:30,2.28063E-05,0,2.79,0
2003/12/1 2:45,2.28575E-05,0,2.79,0
2003/12/1 3:00,0.000022755,0,2.78,0
2003/12/1 3:15,0.000022755,0,2.79,0
2003/12/1 3:30,2.28063E-05,0,2.79,0
2003/12/1 3:45,4.10513E-05,0,0.93,0
2003/12/1 4:00,0,0,0,0
2003/12/1 4:15,0,0,0,0
2003/12/1 4:30,0,0,0,0
2003/12/1 4:45,0,0,0,0
2003/12/1 5:00,0,0,0,0
2003/12/1 5:15,0,0,0,0
2003/12/1 5:30,0,0,0,0
2003/12/1 5:45,0,0,0,0
2003/12/1 6:00,0,0,0,0
2003/12/1 6:15,0,0,0,0
2003/12/1 6:30,0,0,0,0
2003/12/1 6:45,0,0,0,0
2003/12/1 7:00,0,0,0,0
2003/12/1 7:15,0,0,0,0
2003/12/1 7:30,0,0,0,0
2003/12/1 7:45,0,0,0,0
2003/12/1 8:00,0,0,0,0
2003/12/1 8:15,4.78675E-05,0,5.86,0
2003/12/1 8:30,3.49013E-05,0,0,0
2003/12/1 8:45,4.88413E-05,0,5.98,0
2003/12/1 9:00,3.55675E-05,0,4.35,0
2003/12/1 9:15,3.18263E-05,0,3.89,0
2003/12/1 9:30,2.49075E-05,0,3.05,0
2003/12/1 9:45,0.000022755,0,2.78,0
2003/12/1 10:00,6.09875E-05,0,7.46,0
2003/12/1 10:15,2.44463E-05,0,2.99,0
2003/12/1 10:30,0.000022755,0,2.78,0
2003/12/1 10:45,0.000022755,0,2.78,0
2003/12/1 11:00,0.000022755,0,2.78,0
2003/12/1 11:15,0.000022755,0,2.78,0
2003/12/1 11:30,0.000022755,0,2.78,0
2003/12/1 11:45,0.000022755,0,2.78,0
2003/12/1 12:00,0.000022755,0,2.78,0
2003/12/1 12:15,0.000022755,0,2.78,0
2003/12/1 12:30,0.000022755,0,2.78,0
2003/12/1 12:45,4.05388E-05,0,0.93,0
2003/12/1 13:00,0,0,0,0
2003/12/1 13:15,0,0,0,0
2003/12/1 13:30,0,0,0,0
2003/12/1 13:45,0,0,0,0
2003/12/1 14:00,0,0,0,0
2003/12/1 14:15,0,0,0,0
2003/12/1 14:30,0,0,0,0
2003/12/1 14:45,0,0,0,0
2003/12/1 15:00,0,0,0,0
2003/12/1 15:15,0,0,0,0
2003/12/1 15:30,0,0,0,0
2003/12/1 15:45,0,0,0,0
2003/12/1 16:00,0,0,0,0
2003/12/1 16:15,0,0,0,0
2003/12/1 16:30,0,0,0,0
2003/12/1 16:45,0,0,0,0
2003/12/1 17:00,0,0,0,0
2003/12/1 17:15,0,0,0,0
2003/12/1 17:30,0,0,0,0
2003/12/1 17:45,0,0,0,0
2003/12/1 18:00,0,0,0,0
2003/12/1 18:15,0,0,0,0
2003/12/1 18:30,0,0,0,0
2003/12/1 18:45,0,0,0,0
2003/12/1 19:00,0,0,0,0
2003/12/1 19:15,0,0,0,0
2003/12/1 19:30,0,0,0,0
2003/12/1 19:45,0,0,0,0
2003/12/1 20:00,0,0,0,0
2003/12/1 20:15,0,0,0,0
2003/12/1 20:30,6.6625E-06,0,0.81,0
2003/12/1 20:45,0.00005248,0,6.42,0
2003/12/1 21:00,2.83925E-05,0,3.47,0
2003/12/1 21:15,0.00002296,0,2.81,0
2003/12/1 21:30,2.87513E-05,0,3.52,0
2003/12/1 21:45,2.64963E-05,0,3.24,0
2003/12/1 22:00,0.000022755,0,2.78,0
2003/12/1 22:15,0.000022755,0,2.78,0
2003/12/1 22:30,0.000022755,0,2.78,0
2003/12/1 22:45,0.000022755,0,2.78,0
2003/12/1 23:00,2.83925E-05,0,3.48,0
2003/12/1 23:15,0.000023985,0,2.93,0
2003/12/1 23:30,0.000022755,0,2.78,0
2003/12/1 23:45,0.000022755,0,2.78,0
2003/12/2 0:00,5.38125E-05,0,1.86,0
2003/12/2 0:15,0,0,0,0
2003/12/2 0:30,0,0,0,0
2003/12/2 0:45,0,0,0,0
2003/12/2 1:00,0,0,0,0
2003/12/2 1:15,0,0,0,0
2003/12/2 1:30,0,0,0,0
2003/12/2 1:45,0,0,0,0
2003/12/2 2:00,0,0,0,0
2003/12/2 2:15,0,0,0,0
2003/12/2 2:30,0,0,0,0
2003/12/2 2:45,0,0,0,0
2003/12/2 3:00,0,0,0,0
2003/12/2 3:15,0,0,0,0
2003/12/2 3:30,0,0,0,0
2003/12/2 3:45,0,0,0,0
2003/12/2 4:00,0,0,0,0
2003/12/2 4:15,0,0,0,0
2003/12/2 4:30,0,0,0,0
2003/12/2 4:45,0,0,0,0
2003/12/2 5:00,0,0,0,0
2003/12/2 5:15,0,0,0,0
2003/12/2 5:30,0,0,0,0
2003/12/2 5:45,0,0,0,0
2003/12/2 6:00,0,0,0,0
2003/12/2 6:15,0,0,0,0
2003/12/2 6:30,0,0,0,0
2003/12/2 6:45,0,0,0,0
2003/12/2 7:00,0,0,0,0
2003/12/2 7:15,0.000105934,0,12.96,0
2003/12/2 7:30,0.00010701,0,13.09,0
2003/12/2 7:45,0.0000902,0,11.03,0
2003/12/2 8:00,7.85663E-05,0,9.61,0
2003/12/2 8:15,7.69775E-05,0,9.42,0
2003/12/2 8:30,7.34413E-05,0,8.98,0
2003/12/2 8:45,6.69838E-05,0,8.19,0
2003/12/2 9:00,0.000046945,0,4.85,0
2003/12/2 9:15,3.45425E-05,0,4.23,0
2003/12/2 9:30,7.24163E-05,0,4.34,0
2003/12/2 9:45,0,0,0,0
2003/12/2 10:00,0,0,0,0
2003/12/2 10:15,0,0,0,0
2003/12/2 10:30,0,0,0,0
2003/12/2 10:45,0,0,0,0
2003/12/2 11:00,0,0,0,0
2003/12/2 11:15,0,0,0,0
2003/12/2 11:30,0,0,0,0
2003/12/2 11:45,0,0,0,0
2003/12/2 12:00,0,0,0,0
2003/12/2 12:15,0,0,0,0
2003/12/2 12:30,0,0,0,0
2003/12/2 12:45,0,0,0,0
2003/12/2 13:00,0,0,0,0
2003/12/2 13:15,0.00001722,0,2.11,0
2003/12/2 13:30,0.000073185,0,8.95,0
2003/12/2 13:45,7.44663E-05,0,9.11,0
2003/12/2 14:00,5.66313E-05,0,6.93,0
2003/12/2 14:15,5.70413E-05,0,6.98,0
2003/12/2 14:30,3.02888E-05,0,3.71,0
2003/12/2 14:45,0.000029315,0,3.59,0
2003/12/2 15:00,2.55225E-05,0,3.12,0
2003/12/2 15:15,2.57275E-05,0,3.15,0
2003/12/2 15:30,0.00002747,0,3.36,0
2003/12/2 15:45,3.85913E-05,0,4.72,0
2003/12/2 16:00,0.000033415,0,4.09,0
2003/12/2 16:15,4.69963E-05,0,5.48,0
2003/12/2 16:30,1.76813E-05,0,2.17,0
2003/12/2 16:45,0.000022755,0,2.78,0
2003/12/2 17:00,0.000022755,0,2.78,0
2003/12/2 17:15,0.000028905,0,3.54,0
2003/12/2 17:30,3.32613E-05,0,4.07,0
2003/12/2 17:45,2.76238E-05,0,3.38,0
2003/12/2 18:00,2.63938E-05,0,3.23,0
2003/12/2 18:15,2.28063E-05,0,2.79,0
2003/12/2 18:30,2.73163E-05,0,3.34,0
2003/12/2 18:45,3.15188E-05,0,3.86,0
2003/12/2 19:00,3.35688E-05,0,4.1,0
2003/12/2 19:15,2.75725E-05,0,3.37,0
2003/12/2 19:30,0.000048585,0,5.95,0
2003/12/2 19:45,3.52088E-05,0,4.31,0
2003/12/2 20:00,4.72013E-05,0,5.77,0
2003/12/2 20:15,2.49075E-05,0,3.05,0
2003/12/2 20:30,0.000022755,0,2.79,0
2003/12/2 20:45,0.000022755,0,2.78,0
2003/12/2 21:00,0.000022755,0,2.78,0
2003/12/2 21:15,0.000022755,0,2.78,0
2003/12/2 21:30,2.65475E-05,0,3.25,0
2003/12/2 21:45,0.000022755,0,2.79,0
2003/12/2 22:00,2.28063E-05,0,2.79,0
2003/12/2 22:15,0.000022755,0,2.78,0
2003/12/2 22:30,0.000022755,0,2.78,0
2003/12/2 22:45,0.000022755,0,2.78,0
2003/12/2 23:00,0.000022755,0,2.78,0
2003/12/2 23:15,0.000022755,0,2.79,0
2003/12/2 23:30,5.55038E-05,0,2.23,0
2003/12/2 23:45,0,0,0,0
2003/12/3 0:00,0,0,0,0
2003/12/3 0:15,0,0,0,0
2003/12/3 0:30,0,0,0,0
2003/12/3 0:45,0,0,0,0
2003/12/3 1:00,0,0,0,0
2003/12/3 1:15,0,0,0,0
2003/12/3 1:30,0,0,0,0
2003/12/3 1:45,0,0,0,0
2003/12/3 2:00,0,0,0,0
2003/12/3 2:15,0,0,0,0
2003/12/3 2:30,0,0,0,0
2003/12/3 2:45,0,0,0,0
2003/12/3 3:00,0,0,0,0
2003/12/3 3:15,0,0,0,0
2003/12/3 3:30,0,0,0,0
2003/12/3 3:45,0,0,0,0
2003/12/3 4:00,0,0,0,0
2003/12/3 4:15,0,0,0,0
2003/12/3 4:30,0,0,0,0
2003/12/3 4:45,0,0,0,0
2003/12/3 5:00,0,0,0,0
2003/12/3 5:15,0,0,0,0
2003/12/3 5:30,0,0,0,0
2003/12/3 5:45,0,0,0,0
2003/12/3 6:00,0,0,0,0
2003/12/3 6:15,0,0,0,0
2003/12/3 6:30,0,0,0,0
2003/12/3 6:45,0,0,0,0
2003/12/3 7:00,0,0,0,0
2003/12/3 7:15,0,0,0,0
2003/12/3 7:30,1.66563E-05,0,2.04,0
2003/12/3 7:45,0.000107061,0,13.1,0
2003/12/3 8:00,0.000101783,0,12.45,0
2003/12/3 8:15,8.52288E-05,0,10.43,0
2003/12/3 8:30,7.75925E-05,0,9.49,0
2003/12/3 8:45,2.32163E-05,0,2.84,0
2003/12/3 9:00,2.50613E-05,0,3.07,0
2003/12/3 9:15,6.67275E-05,0,8.16,0
2003/12/3 9:30,6.08338E-05,0,3.66,0
2003/12/3 9:45,0,0,0,0
2003/12/3 10:00,0,0,0,0
2003/12/3 10:15,0,0,0,0
2003/12/3 10:30,0,0,0,0
2003/12/3 10:45,0,0,0,0
2003/12/3 11:00,0,0,0,0
2003/12/3 11:15,0,0,0,0
2003/12/3 11:30,0,0,0,0
2003/12/3 11:45,0,0,0,0
2003/12/3 12:00,0,0,0,0
2003/12/3 12:15,0,0,0,0
2003/12/3 12:30,0,0,0,0
2003/12/3 12:45,0,0,0,0
2003/12/3 13:00,0,0,0,0
2003/12/3 13:15,0,0,0,0
2003/12/3 13:30,0,0,0,0
2003/12/3 13:45,0,0,0,0
2003/12/3 14:00,0,0,0,0
2003/12/3 14:15,0,0,0,0
2003/12/3 14:30,0,0,0,0
2003/12/3 14:45,0,0,0,0
2003/12/3 15:00,0,0,0,0
2003/12/3 15:15,0,0,0,0
2003/12/3 15:30,0,0,0,0
2003/12/3 15:45,0,0,0,0
2003/12/3 16:00,0,0,0,0
2003/12/3 16:15,0,0,0,0
2003/12/3 16:30,0,0,0,0
2003/12/3 16:45,3.42863E-05,0,4.2,0
2003/12/3 17:00,0.000022755,0,2.79,0
2003/12/3 17:15,0.000022755,0,2.78,0
2003/12/3 17:30,3.51575E-05,0,4.3,0
2003/12/3 17:45,3.20313E-05,0,3.92,0
2003/12/3 18:00,0.000023575,0,2.88,0
2003/12/3 18:15,4.88925E-05,0,5.98,0
2003/12/3 18:30,5.39663E-05,0,6.6,0
2003/12/3 18:45,0.00004797,0,5.87,0
2003/12/3 19:00,0.000029725,0,3.63,0
2003/12/3 19:15,0.000041205,0,5.04,0
2003/12/3 19:30,0.00005412,0,6.62,0
2003/12/3 19:45,0.000044075,0,5.39,0
2003/12/3 20:00,5.44275E-05,0,6.66,0
2003/12/3 20:15,4.51513E-05,0,5.53,0
2003/12/3 20:30,4.41775E-05,0,5.4,0
2003/12/3 20:45,2.57275E-05,0,3.15,0
2003/12/3 21:00,2.92125E-05,0,3.58,0
2003/12/3 21:15,3.27488E-05,0,4.01,0
2003/12/3 21:30,0.000029725,0,3.64,0
2003/12/3 21:45,3.11088E-05,0,3.8,0
2003/12/3 22:00,3.86425E-05,0,4.73,0
2003/12/3 22:15,2.34725E-05,0,2.87,0
2003/12/3 22:30,2.55738E-05,0,3.13,0
2003/12/3 22:45,2.91613E-05,0,3.57,0
2003/12/3 23:00,0.000028905,0,3.54,0
2003/12/3 23:15,2.92638E-05,0,3.58,0
2003/12/3 23:30,2.86488E-05,0,3.51,0
2003/12/3 23:45,3.09038E-05,0,3.78,0
2003/12/4 0:00,4.08975E-05,0,1.03,0
2003/12/4 0:15,0,0,0,0
2003/12/4 0:30,0,0,0,0
2003/12/4 0:45,0,0,0,0
2003/12/4 1:00,0,0,0,0
2003/12/4 1:15,0,0,0,0
2003/12/4 1:30,0,0,0,0
2003/12/4 1:45,0,0,0,0
2003/12/4 2:00,0,0,0,0
2003/12/4 2:15,0,0,0,0
2003/12/4 2:30,0,0,0,0
2003/12/4 2:45,0,0,0,0
2003/12/4 3:00,0,0,0,0
2003/12/4 3:15,0,0,0,0
2003/12/4 3:30,0,0,0,0
2003/12/4 3:45,0,0,0,0
2003/12/4 4:00,0,0,0,0
2003/12/4 4:15,0,0,0,0
2003/12/4 4:30,0,0,0,0
2003/12/4 4:45,0,0,0,0
2003/12/4 5:00,0,0,0,0
2003/12/4 5:15,0,0,0,0
2003/12/4 5:30,0,0,0,0
2003/12/4 5:45,0,0,0,0
2003/12/4 6:00,0,0,0,0
2003/12/4 6:15,0,0,0,0
2003/12/4 6:30,0,0,0,0
2003/12/4 6:45,0,0,0,0
2003/12/4 7:00,0,0,0,0
2003/12/4 7:15,2.92638E-05,0,3.58,0
2003/12/4 7:30,0.000107061,0,13.1,0
2003/12/4 7:45,0.000106036,0,12.97,0
2003/12/4 8:00,9.62988E-05,0,11.78,0
2003/12/4 8:15,0.000052275,0,0,0
2003/12/4 8:30,0,0,0,0
2003/12/4 8:45,8.75863E-05,0,10.72,0
2003/12/4 9:00,0.000105524,0,12.91,0
2003/12/4 9:15,9.37875E-05,0,11.47,0
2003/12/4 9:30,0.00007708,0,9.43,0
2003/12/4 9:45,9.18913E-05,0,11.24,0
2003/12/4 10:00,7.77463E-05,0,9.51,0
2003/12/4 10:15,4.90975E-05,0,6.01,0
2003/12/4 10:30,0.000022755,0,2.78,0
2003/12/4 10:45,0.000022755,0,2.78,0
2003/12/4 11:00,0.000022755,0,2.78,0
2003/12/4 11:15,0.000022755,0,2.78,0
2003/12/4 11:30,0.000022755,0,2.78,0
2003/12/4 11:45,0.000022755,0,2.78,0
2003/12/4 12:00,0.000022755,0,2.78,0
2003/12/4 12:15,6.16538E-05,0,7.54,0
2003/12/4 12:30,0.000103218,0,12.63,0
2003/12/4 12:45,0.000102346,0,12.52,0
2003/12/4 13:00,9.00975E-05,0,11.02,0
2003/12/4 13:15,0.000088355,0,10.81,0
2003/12/4 13:30,0.00006068,0,7.43,0
2003/12/4 13:45,5.35563E-05,0,6.55,0
2003/12/4 14:00,5.31975E-05,0,6.51,0
2003/12/4 14:15,5.21725E-05,0,6.38,0
2003/12/4 14:30,4.54075E-05,0,1.69,0
2003/12/4 14:45,0,0,0,0
2003/12/4 15:00,0,0,0,0
2003/12/4 15:15,6.03725E-05,0,7.38,0
2003/12/4 15:30,7.07763E-05,0,8.66,0
2003/12/4 15:45,6.37038E-05,0,7.8,0
2003/12/4 16:00,6.34475E-05,0,7.76,0
2003/12/4 16:15,6.58563E-05,0,8.06,0
2003/12/4 16:30,0.000051455,0,6.29,0
2003/12/4 16:45,5.48888E-05,0,6.72,0
2003/12/4 17:00,5.87838E-05,0,7.19,0
2003/12/4 17:15,6.59075E-05,0,8.07,0
2003/12/4 17:30,6.30375E-05,0,7.71,0
2003/12/4 17:45,6.85213E-05,0,8.38,0
2003/12/4 18:00,8.43063E-05,0,10.32,0
2003/12/4 18:15,9.31213E-05,0,11.39,0
2003/12/4 18:30,5.75538E-05,0,7.04,0
2003/12/4 18:45,5.84763E-05,0,7.16,0
2003/12/4 19:00,6.44725E-05,0,7.89,0
2003/12/4 19:15,6.39088E-05,0,7.82,0
2003/12/4 19:30,0.00006273,0,7.67,0
2003/12/4 19:45,0.000052685,0,6.45,0
2003/12/4 20:00,4.48438E-05,0,5.48,0
2003/12/4 20:15,4.43313E-05,0,5.42,0
2003/12/4 20:30,5.59138E-05,0,6.84,0
2003/12/4 20:45,5.01738E-05,0,6.14,0
2003/12/4 21:00,4.28963E-05,0,5.25,0
2003/12/4 21:15,0.000076875,0,9.4,0
2003/12/4 21:30,4.12563E-05,0,5.05,0
2003/12/4 21:45,4.41775E-05,0,5.41,0
2003/12/4 22:00,4.08975E-05,0,5,0
2003/12/4 22:15,3.86938E-05,0,4.73,0
2003/12/4 22:30,3.46963E-05,0,4.24,0
2003/12/4 22:45,0.000048995,0,5.99,0
2003/12/4 23:00,5.17113E-05,0,6.33,0
2003/12/4 23:15,0.000064985,0,3.81,0
2003/12/4 23:30,0,0,0,0
2003/12/4 23:45,0,0,0,0
2003/12/5 0:00,0,0,0,0
2003/12/5 0:15,0,0,0,0
2003/12/5 0:30,0,0,0,0
2003/12/5 0:45,0,0,0,0
2003/12/5 1:00,0,0,0,0
2003/12/5 1:15,0,0,0,0
2003/12/5 1:30,0,0,0,0
2003/12/5 1:45,0,0,0,0
2003/12/5 2:00,0,0,0,0
2003/12/5 2:15,0,0,0,0
2003/12/5 2:30,0,0,0,0
2003/12/5 2:45,0,0,0,0
2003/12/5 3:00,0,0,0,0
2003/12/5 3:15,0,0,0,0
2003/12/5 3:30,0,0,0,0
2003/12/5 3:45,0,0,0,0
2003/12/5 4:00,0,0,0,0
2003/12/5 4:15,0,0,0,0
2003/12/5 4:30,0,0,0,0
2003/12/5 4:45,0,0,0,0
2003/12/5 5:00,0,0,0,0
2003/12/5 5:15,0,0,0,0
2003/12/5 5:30,0,0,0,0
2003/12/5 5:45,0,0,0,0
2003/12/5 6:00,0,0,0,0
2003/12/5 6:15,0,0,0,0
2003/12/5 6:30,0,0,0,0
2003/12/5 6:45,0,0,0,0
2003/12/5 7:00,0,0,0,0
2003/12/5 7:15,0,0,0,0
2003/12/5 7:30,0,0,0,0
2003/12/5 7:45,1.68613E-05,0,2.06,0
2003/12/5 8:00,0.000107061,0,13.1,0
2003/12/5 8:15,0.000113006,0,8.72,0
2003/12/5 8:30,0,0,0,0
2003/12/5 8:45,5.26338E-05,0,6.44,0
2003/12/5 9:00,0.00007052,0,8.63,0
2003/12/5 9:15,0.0000697,0,2.59,0
2003/12/5 9:30,0,0,0,0
2003/12/5 9:45,0,0,0,0
2003/12/5 10:00,0,0,0,0
2003/12/5 10:15,0,0,0,0
2003/12/5 10:30,0,0,0,0
2003/12/5 10:45,0,0,0,0
2003/12/5 11:00,0,0,0,0
2003/12/5 11:15,0,0,0,0
2003/12/5 11:30,0,0,0,0
2003/12/5 11:45,0,0,0,0
2003/12/5 12:00,0,0,0,0
2003/12/5 12:15,0,0,0,0
2003/12/5 12:30,2.94175E-05,0,3.6,0
2003/12/5 12:45,3.45425E-05,0,4.22,0
2003/12/5 13:00,0.000022755,0,2.78,0
2003/12/5 13:15,0.000022755,0,2.79,0
2003/12/5 13:30,0.00003854,0,4.72,0
2003/12/5 13:45,4.13588E-05,0,5.06,0
2003/12/5 14:00,3.67975E-05,0,4.5,0
2003/12/5 14:15,2.68038E-05,0,3.28,0
2003/12/5 14:30,5.18138E-05,0,6.34,0
2003/12/5 14:45,4.13588E-05,0,5.06,0
2003/12/5 15:00,0.00005699,0,1.78,0
2003/12/5 15:15,0,0,0,0
2003/12/5 15:30,0,0,0,0
2003/12/5 15:45,0,0,0,0
2003/12/5 16:00,0,0,0,0
2003/12/5 16:15,0,0,0,0
2003/12/5 16:30,0,0,0,0
2003/12/5 16:45,0,0,0,0
2003/12/5 17:00,0.000083025,0,10.16,0
2003/12/5 17:15,9.50175E-05,0,11.63,0
2003/12/5 17:30,8.34863E-05,0,10.21,0
2003/12/5 17:45,6.89313E-05,0,8.43,0
2003/12/5 18:00,7.71313E-05,0,9.43,0
2003/12/5 18:15,5.50425E-05,0,6.74,0
2003/12/5 18:30,6.31913E-05,0,7.73,0
2003/12/5 18:45,6.99563E-05,0,8.55,0
2003/12/5 19:00,5.75538E-05,0,7.04,0
2003/12/5 19:15,3.60288E-05,0,0,0
2003/12/5 19:30,0,0,0,0
2003/12/5 19:45,4.18713E-05,0,5.12,0
2003/12/5 20:00,0.00008036,0,9.83,0
2003/12/5 20:15,8.49213E-05,0,10.39,0
2003/12/5 20:30,7.63625E-05,0,9.34,0
2003/12/5 20:45,7.82588E-05,0,9.58,0
2003/12/5 21:00,6.89313E-05,0,8.43,0
2003/12/5 21:15,4.83288E-05,0,5.91,0
2003/12/5 21:30,3.32613E-05,0,4.07,0
2003/12/5 21:45,2.77775E-05,0,3.31,0
2003/12/5 22:00,0.00007257,0,8.88,0
2003/12/5 22:15,7.20575E-05,0,8.82,0
2003/12/5 22:30,0.00006232,0,7.63,0
2003/12/5 22:45,8.57413E-05,0,10.49,0
2003/12/5 23:00,8.26663E-05,0,10.11,0
2003/12/5 23:15,8.13338E-05,0,9.95,0
2003/12/5 23:30,6.18075E-05,0,3.25,0
2003/12/5 23:45,0,0,0,0
2003/12/6 0:00,0,0,0,0
2003/12/6 0:15,0,0,0,0
2003/12/6 0:30,0,0,0,0
2003/12/6 0:45,0,0,0,0
2003/12/6 1:00,0,0,0,0
2003/12/6 1:15,0,0,0,0
2003/12/6 1:30,0,0,0,0
2003/12/6 1:45,0,0,0,0
2003/12/6 2:00,0,0,0,0
2003/12/6 2:15,0,0,0,0
2003/12/6 2:30,0,0,0,0
2003/12/6 2:45,0,0,0,0
2003/12/6 3:00,0,0,0,0
2003/12/6 3:15,0,0,0,0
2003/12/6 3:30,0,0,0,0
2003/12/6 3:45,0,0,0,0
2003/12/6 4:00,0,0,0,0
2003/12/6 4:15,0,0,0,0
2003/12/6 4:30,0,0,0,0
2003/12/6 4:45,0,0,0,0
2003/12/6 5:00,0,0,0,0
2003/12/6 5:15,0,0,0,0
2003/12/6 5:30,0,0,0,0
2003/12/6 5:45,0,0,0,0
2003/12/6 6:00,0,0,0,0
2003/12/6 6:15,0,0,0,0
2003/12/6 6:30,0,0,0,0
2003/12/6 6:45,0,0,0,0
2003/12/6 7:00,0,0,0,0
2003/12/6 7:15,0,0,0,0
2003/12/6 7:30,7.98988E-05,0,9.77,0
2003/12/6 7:45,0.000107061,0,13.09,0
2003/12/6 8:00,0.00010701,0,13.09,0
2003/12/6 8:15,7.77975E-05,0,4.36,0
2003/12/6 8:30,1.26075E-05,0,1.54,0
2003/12/6 8:45,0.000103064,0,12.61,0
2003/12/6 9:00,0.000084665,0,10.36,0
2003/12/6 9:15,8.51263E-05,0,10.42,0
2003/12/6 9:30,4.21275E-05,0,0,0
2003/12/6 9:45,0.00006232,0,7.62,0
2003/12/6 10:00,0.000074415,0,9.11,0
2003/12/6 10:15,4.37675E-05,0,5.35,0
2003/12/6 10:30,0.000048995,0,5.99,0
2003/12/6 10:45,4.70988E-05,0,5.76,0
2003/12/6 11:00,0.000076875,0,9.4,0
2003/12/6 11:15,6.98025E-05,0,8.54,0
2003/12/6 11:30,0.000050225,0,6.14,0
2003/12/6 11:45,4.12563E-05,0,5.05,0
2003/12/6 12:00,0.00003936,0,4.81,0
2003/12/6 12:15,4.62788E-05,0,5.66,0
2003/12/6 12:30,6.59075E-05,0,8.06,0
2003/12/6 12:45,5.58625E-05,0,6.83,0
2003/12/6 13:00,5.19163E-05,0,6.35,0
2003/12/6 13:15,5.52988E-05,0,6.77,0
2003/12/6 13:30,5.75025E-05,0,7.04,0
2003/12/6 13:45,0.000061705,0,7.55,0
2003/12/6 14:00,5.29925E-05,0,6.48,0
2003/12/6 14:15,7.43638E-05,0,4.17,0
2003/12/6 14:30,0,0,0,0
2003/12/6 14:45,0,0,0,0
2003/12/6 15:00,0,0,0,0
2003/12/6 15:15,0,0,0,0
2003/12/6 15:30,0,0,0,0
2003/12/6 15:45,1.36325E-05,0,1.67,0
2003/12/6 16:00,0.00009717,0,11.88,0
2003/12/6 16:15,8.26663E-05,0,10.11,0
2003/12/6 16:30,0.00007052,0,8.63,0
2003/12/6 16:45,5.93988E-05,0,7.27,0
2003/12/6 17:00,5.10963E-05,0,6.25,0
2003/12/6 17:15,5.80663E-05,0,7.1,0
2003/12/6 17:30,5.98088E-05,0,7.32,0
2003/12/6 17:45,0.000053505,0,6.54,0
2003/12/6 18:00,5.36075E-05,0,6.56,0
2003/12/6 18:15,5.22238E-05,0,6.39,0
2003/12/6 18:30,4.39213E-05,0,5.38,0
2003/12/6 18:45,0.00004715,0,5.77,0
2003/12/6 19:00,4.80213E-05,0,5.88,0
2003/12/6 19:15,3.65925E-05,0,4.47,0
2003/12/6 19:30,3.44913E-05,0,4.22,0
2003/12/6 19:45,3.30563E-05,0,4.05,0
2003/12/6 20:00,3.18775E-05,0,3.9,0
2003/12/6 20:15,0.0000287,0,3.51,0
2003/12/6 20:30,2.89563E-05,0,3.54,0
2003/12/6 20:45,0.000030545,0,3.73,0
2003/12/6 21:00,3.66438E-05,0,4.48,0
2003/12/6 21:15,3.82325E-05,0,4.68,0
2003/12/6 21:30,0.000032595,0,3.99,0
2003/12/6 21:45,4.32038E-05,0,5.28,0
2003/12/6 22:00,3.06988E-05,0,3.76,0
2003/12/6 22:15,3.31588E-05,0,4.05,0
2003/12/6 22:30,5.51963E-05,0,2.96,0
2003/12/6 22:45,0,0,0,0
2003/12/6 23:00,0,0,0,0
2003/12/6 23:15,0,0,0,0
2003/12/6 23:30,0,0,0,0
2003/12/6 23:45,0,0,0,0
2003/12/7 0:00,0,0,0,0
2003/12/7 0:15,0,0,0,0
2003/12/7 0:30,0,0,0,0
2003/12/7 0:45,0,0,0,0
2003/12/7 1:00,0,0,0,0
2003/12/7 1:15,0,0,0,0
2003/12/7 1:30,0,0,0,0
2003/12/7 1:45,0,0,0,0
2003/12/7 2:00,0,0,0,0
2003/12/7 2:15,0,0,0,0
2003/12/7 2:30,0,0,0,0
2003/12/7 2:45,0,0,0,0
2003/12/7 3:00,0,0,0,0
2003/12/7 3:15,0,0,0,0
2003/12/7 3:30,0,0,0,0
2003/12/7 3:45,0,0,0,0
2003/12/7 4:00,0,0,0,0
2003/12/7 4:15,0,0,0,0
2003/12/7 4:30,0,0,0,0
2003/12/7 4:45,0,0,0,0
2003/12/7 5:00,0,0,0,0
2003/12/7 5:15,0,0,0,0
2003/12/7 5:30,0,0,0,0
2003/12/7 5:45,0,0,0,0
2003/12/7 6:00,0,0,0,0
2003/12/7 6:15,0,0,0,0
2003/12/7 6:30,0,0,0,0
2003/12/7 6:45,0,0,0,0
2003/12/7 7:00,0,0,0,0
2003/12/7 7:15,0,0,0,0
2003/12/7 7:30,0,0,0,0
2003/12/7 7:45,4.47925E-05,0,5.48,0
2003/12/7 8:00,0.000107061,0,13.1,0
2003/12/7 8:15,0.000105473,0,12.9,0
2003/12/7 8:30,0.000094915,0,11.61,0
2003/12/7 8:45,8.23075E-05,0,10.07,0
2003/12/7 9:00,8.32813E-05,0,10.19,0
2003/12/7 9:15,0.000063345,0,3.15,0
2003/12/7 9:30,3.66438E-05,0,4.48,0
2003/12/7 9:45,7.84638E-05,0,9.6,0
2003/12/7 10:00,7.51838E-05,0,9.2,0
2003/12/7 10:15,6.41138E-05,0,7.84,0
2003/12/7 10:30,6.18588E-05,0,7.57,0
2003/12/7 10:45,0.00005945,0,7.27,0
2003/12/7 11:00,0.00007011,0,8.57,0
2003/12/7 11:15,4.48438E-05,0,5.49,0
2003/12/7 11:30,7.25188E-05,0,8.87,0
2003/12/7 11:45,6.30375E-05,0,7.71,0
2003/12/7 12:00,5.18138E-05,0,6.34,0
2003/12/7 12:15,6.24225E-05,0,7.63,0
2003/12/7 12:30,0.0000574,0,7.02,0
2003/12/7 12:45,5.13525E-05,0,6.28,0
2003/12/7 13:00,6.42675E-05,0,7.86,0
2003/12/7 13:15,5.58113E-05,0,6.83,0
2003/12/7 13:30,5.72975E-05,0,7.01,0
2003/12/7 13:45,5.06863E-05,0,6.2,0
2003/12/7 14:00,0.00006601,0,8.07,0
2003/12/7 14:15,6.16538E-05,0,7.54,0
2003/12/7 14:30,5.38638E-05,0,6.59,0
2003/12/7 14:45,6.22688E-05,0,7.61,0
2003/12/7 15:00,0.000059245,0,7.25,0
2003/12/7 15:15,6.70863E-05,0,8.2,0
2003/12/7 15:30,0.000056785,0,6.95,0
2003/12/7 15:45,5.45813E-05,0,6.67,0
2003/12/7 16:00,0.000038745,0,0,0
2003/12/7 16:15,0,0,0,0
2003/12/7 16:30,0,0,0,0
2003/12/7 16:45,4.2025E-06,0,0.51,0
2003/12/7 17:00,0.000101731,0,12.45,0
2003/12/7 17:15,8.50238E-05,0,10.4,0
2003/12/7 17:30,0.000069495,0,8.5,0
2003/12/7 17:45,0.000083845,0,10.26,0
2003/12/7 18:00,7.47225E-05,0,9.14,0
2003/12/7 18:15,8.03088E-05,0,9.83,0
2003/12/7 18:30,7.65163E-05,0,9.36,0
2003/12/7 18:45,5.79125E-05,0,7.08,0
2003/12/7 19:00,3.98213E-05,0,4.87,0
2003/12/7 19:15,4.03338E-05,0,4.93,0
2003/12/7 19:30,4.75088E-05,0,5.81,0
2003/12/7 19:45,5.81175E-05,0,7.11,0
2003/12/7 20:00,6.51388E-05,0,7.97,0
2003/12/7 20:15,0.000056375,0,6.89,0
2003/12/7 20:30,0.000051045,0,6.24,0
2003/12/7 20:45,0.000050635,0,6.2,0
2003/12/7 21:00,5.24288E-05,0,6.41,0
2003/12/7 21:15,0.00005084,0,6.22,0
2003/12/7 21:30,0.000053095,0,6.5,0
2003/12/7 21:45,5.29925E-05,0,6.48,0
2003/12/7 22:00,5.14038E-05,0,6.29,0
2003/12/7 22:15,4.41775E-05,0,5.4,0
2003/12/7 22:30,6.89825E-05,0,8.44,0
2003/12/7 22:45,7.69775E-05,0,9.42,0
2003/12/7 23:00,6.73425E-05,0,8.24,0
2003/12/7 23:15,6.34475E-05,0,7.76,0
2003/12/7 23:30,6.74963E-05,0,8.26,0
2003/12/7 23:45,6.57538E-05,0,8.04,0
2003/12/8 0:00,5.31975E-05,0,2.71,0
2003/12/8 0:15,0,0,0,0
2003/12/8 0:30,0,0,0,0
2003/12/8 0:45,0,0,0,0
2003/12/8 1:00,0,0,0,0
2003/12/8 1:15,0,0,0,0
2003/12/8 1:30,0,0,0,0
2003/12/8 1:45,0,0,0,0
2003/12/8 2:00,0,0,0,0
2003/12/8 2:15,0,0,0,0
2003/12/8 2:30,0,0,0,0
2003/12/8 2:45,0,0,0,0
2003/12/8 3:00,0,0,0,0
2003/12/8 3:15,0,0,0,0
2003/12/8 3:30,0,0,0,0
2003/12/8 3:45,0,0,0,0
2003/12/8 4:00,0,0,0,0
2003/12/8 4:15,0,0,0,0
2003/12/8 4:30,0,0,0,0
2003/12/8 4:45,0,0,0,0
2003/12/8 5:00,0,0,0,0
2003/12/8 5:15,0,0,0,0
2003/12/8 5:30,0,0,0,0
2003/12/8 5:45,0,0,0,0
2003/12/8 6:00,0,0,0,0
2003/12/8 6:15,0,0,0,0
2003/12/8 6:30,0,0,0,0
2003/12/8 6:45,0,0,0,0
2003/12/8 7:00,0,0,0,0
2003/12/8 7:15,0,0,0,0
2003/12/8 7:30,0,0,0,0
2003/12/8 7:45,0,0,0,0
2003/12/8 8:00,6.71375E-06,0,0.82,0
2003/12/8 8:15,0.000107061,0,13.1,0
2003/12/8 8:30,0.00010701,0,13.09,0
2003/12/8 8:45,0.00010701,0,13.09,0
2003/12/8 9:00,0.00010701,0,13.09,0
2003/12/8 9:15,0.000106036,0,12.97,0
2003/12/8 9:30,0.00010701,0,13.09,0
2003/12/8 9:45,0.00010906,0,13.34,0
2003/12/8 10:00,9.91688E-05,0,12.13,0
2003/12/8 10:15,9.55813E-05,0,11.69,0
2003/12/8 10:30,7.15963E-05,0,8.76,0
2003/12/8 10:45,9.44538E-05,0,11.56,0
2003/12/8 11:00,0.000089175,0,10.91,0
2003/12/8 11:15,8.55363E-05,0,10.46,0
2003/12/8 11:30,0.000063755,0,3.25,0
2003/12/8 11:45,0,0,0,0
2003/12/8 12:00,0,0,0,0
2003/12/8 12:15,0,0,0,0
2003/12/8 12:30,0,0,0,0
2003/12/8 12:45,0,0,0,0
2003/12/8 13:00,0,0,0,0
2003/12/8 13:15,0,0,0,0
2003/12/8 13:30,0,0,0,0
2003/12/8 13:45,0,0,0,0
2003/12/8 14:00,0,0,0,0
2003/12/8 14:15,0,0,0,0
2003/12/8 14:30,0,0,0,0
2003/12/8 14:45,0,0,0,0
2003/12/8 15:00,0,0,0,0
2003/12/8 15:15,0,0,0,0
2003/12/8 15:30,0,0,0,0
2003/12/8 15:45,0,0,0,0
2003/12/8 16:00,0,0,0,0
2003/12/8 16:15,0,0,0,0
2003/12/8 16:30,0.000003075,0,0.37,0
2003/12/8 16:45,0.000107061,0,13.1,0
2003/12/8 17:00,0.00010701,0,13.09,0
2003/12/8 17:15,0.00010701,0,13.09,0
2003/12/8 17:30,0.00010701,0,13.09,0
2003/12/8 17:45,0.00010701,0,13.09,0
2003/12/8 18:00,0.00008733,0,10.68,0
2003/12/8 18:15,0.000083025,0,10.16,0
2003/12/8 18:30,0.000106651,0,13.05,0
2003/12/8 18:45,0.000087125,0,10.66,0
2003/12/8 19:00,0.00008241,0,10.08,0
2003/12/8 19:15,0.00008651,0,10.58,0
2003/12/8 19:30,8.70225E-05,0,10.64,0
2003/12/8 19:45,0.00007462,0,9.13,0
2003/12/8 20:00,8.16413E-05,0,9.98,0
2003/12/8 20:15,0.00007503,0,9.18,0
2003/12/8 20:30,0.000080565,0,9.86,0
2003/12/8 20:45,0.000064165,0,7.85,0
2003/12/8 21:00,6.04238E-05,0,7.39,0
2003/12/8 21:15,0.000059245,0,7.25,0
2003/12/8 21:30,6.98025E-05,0,8.54,0
2003/12/8 21:45,6.19613E-05,0,7.58,0
2003/12/8 22:00,4.59713E-05,0,0,0